Погода в Исакове

Россия / Псковская область     56°19′30″N   29°03′45″E
темп.,
°C
ветер,
м/с
пор.,
м/с
влажн.,
%
обл.,
%
осадки,
мм/ч
давл.,
гПа
погр.,
м
17 апреля, сб
сб1700:00+10всв41281100 0.0 1020548
03:00+8св4118679 0.0 1020465
06:00+7всв4128761 0.0 1021448
09:00+8всв41083100 0.0 1022443
12:00+9всв4882100 0.2 1023592
15:00+12всв4670100 0.2 1023976
18:00+13св486996 0.0 10221208
21:00+11св41075100 0.0 1022706
18 апреля, вс
вс1800:00+9св4127945 0.0 1022500
03:00+7св41179100 0.0 1022439
06:00+5св4117694 0.0 1022384
09:00+8св496328 0.0 1022542
12:00+12св575144 0.0 10221052
15:00+14всв574383 0.0 10221644
18:00+14всв474677 0.0 10221817
21:00+10всв2562100 0.0 1023141
19 апреля, пн
пн1900:00+8св25765 0.0 1024130
03:00+5всв26865 0.0 1025160
06:00+5всв412855 0.0 1025564
09:00+8всв497043 0.0 1025801
12:00+11всв585797 0.1 10241681
15:00+11в4760100 0.2 10241416
18:00+11всв475876 0.2 10231014
21:00+8всв378099 0.6 1023788
20 апреля, вт
вт2000:00+6в498493 0.2 1022726
03:00+6св3885100 0.2 1021610
06:00+5всв4887100 0.0 1019842
09:00+5всв4891100 0.1 1018795
12:00+7всв4773100 0.1 10171012
15:00+9св4762100 0.1 10141444
18:00+8всв377599 0.1 10121073
21:00+6ссв4990100 0.3 10091087
21 апреля, ср
ср2100:00+4ссв5996100 1.1 1005971
03:00+3с51197100 4.8 1002776
06:00+2ссз41097100 3.2 999571
09:00+3ссз4997100 3.8 997543
12:00+3сз4897100 1.1 997545
15:00+2з41097100 2.6 999500
18:00+3з41097100 0.8 1001627
21:00+3зюз4997100 1.6 1003951